KASEKTEX

Guest
Details From KASE - Aspen Pitkin Co Sardy Fld
To KTEX - Telluride Rgnl
Flight Number -
Tags generated
Created
Modified
Stats Distance 91 nm / 168 km
Max Altitude 0 ft / 0 m
Waypoints 2
Social Downloads 0
Likes 0
Share VATSIM

Download

Looking for another format? Having issues loading an existing format? Contact us
Advertisement - Login to hide

Notes

Basic altitude profile: - Ascent Rate: 1320ft/min - Ascent Speed: 110kts - Cruise Altitude: 19000ft - Cruise Speed: 160kts - Descent Rate: 1200ft/min - Descent Speed: 110kts Options: - Use NATs: no - Use PACOTS: no - Use low airways: no - Use high airways: no

Route

KASE KTEX

ID Type Via Altitude Latitude Longitude Leg Dist Tot Dist Heading (true) Name
O KASE APT - 0 ft / 0 m 39.22316˚ -106.86885˚ - 0 nm - Aspen Pitkin Co Sardy Fld
O KTEX APT - 0 ft / 0 m 37.95381˚ -107.90874˚ 90 nm 90 nm 213° / 212° Telluride Rgnl

Altitude Profile

Advertisement - Login to hide

KASE

Details ICAO KASE (ASE)
Name Aspen Pitkin Co Sardy Fld
Region United States
Timezone America/Denver (UTC-6.0)
Stats Elevation 7,820 ft / 2,384 m (AMSL)
Location 39.223164° -106.868847°
Runways 1
Magnetic Variation 9.050° E

METAR

KASE 241953Z 36006G16KT 10SM FEW100 21/M03 A3026 RMK AO2 SLP144 T02111033

Decode

TAF

TAF AMD KASE 241815Z 2418/2518 32009G18KT P6SM FEW100 FEW200 FM250200 20006KT P6SM FEW250 FM250500 19006KT P6SM SKC

Decode

Departure Runways

ID Width Length Bearing (true) Bearing (mag) Surface Threshold Offset Overrun Length
15 100 ft / 30 m 7,011 ft / 2,137 m 159.71° 150.66° Asphalt 0 ft / 0 m 499 ft / 152 m
33 100 ft / 30 m 7,011 ft / 2,137 m 339.71° 330.66° Asphalt 0 ft / 0 m 0 ft / 0 m

KTEX

Details ICAO KTEX (TEX)
Name Telluride Rgnl
Region United States
Timezone America/Denver (UTC-6.0)
Stats Elevation 9,078 ft / 2,767 m (AMSL)
Location 37.953812° -107.908742°
Runways 1
Magnetic Variation 9.376° E

METAR

KTEX 241955Z AUTO 25006G16KT 10SM BKN110 19/M08 A3038 RMK AO2 T01921085

Decode

TAF

KTEX 241725Z 2418/2518 VRB05KT P6SM FEW200 FM242000 25008G18KT P6SM FEW100 FEW250 FM250200 VRB04KT P6SM SKC FM250700 14006KT P6SM SKC

Decode

Destination Runways

ID Width Length Bearing (true) Bearing (mag) Surface Threshold Offset Overrun Length
09 98 ft / 30 m 7,095 ft / 2,163 m 104.96° 95.58° Asphalt 200 ft / 61 m 400 ft / 122 m
27 98 ft / 30 m 7,095 ft / 2,163 m 284.98° 275.60° Asphalt 200 ft / 61 m 400 ft / 122 m

Approach Navaids

Runway Type Ident Frequency Range Bearing (true) Bearing (mag) Slope Elevation
09 Localiser ITEX 109.30 MHz 18 nm / 33 km 102.00° 92.62° - 9,078 ft / 2,767 m (AMSL)
09 DME ITEX 109.30 MHz 18 nm / 33 km - - - 9,078 ft / 2,767 m (AMSL)

Popular Alternatives